[Date Prev][Date Next][Thread Prev][Thread Next] - [Date Index][Thread Index][Author Index]
2 Line ISS Keps 9-25
- Subject: [sarex] 2 Line ISS Keps 9-25
- From: "Scott Avery WA6LIE" <wa6lie@xxxxxxx>
- Date: Sat, 25 Sep 2004 06:37:43 -0700
- Seal-Send-Time: Sat, 25 Sep 2004 06:37:43 -0700
ISS
1 25544U 98067A 04269.45907407 .00014559 00000-0 13109-3 0 7637
2 25544 51.6358 173.9553 0009978 148.9816 191.0126 15.68424084334061
----
Via the sarex mailing list at AMSAT.ORG courtesy of AMSAT-NA.
To unsubscribe, send "unsubscribe sarex" to Majordomo@amsat.org
AMSAT Home